TimePDT,TemperatureF,Dew PointF,Humidity,Sea Level PressureIn,VisibilityMPH,Wind Direction,Wind SpeedMPH,Gust SpeedMPH,PrecipitationIn,Events,Conditions,WindDirDegrees,DateUTC
12:00 AM,48.2,48.2,100,30.08,9.0,SW,3.5,-,N/A,,Partly Cloudy,220,2013-06-17 07:00:00
1:00 AM,50.0,48.2,94,30.08,9.0,SSW,6.9,-,N/A,,Clear,210,2013-06-17 08:00:00
2:00 AM,51,48,85,30.07,9,SSW,8.1,,,,,210,2013-06-17 09:00:00
2:00 AM,50.0,48.2,94,30.07,9.0,SW,13.8,19.6,N/A,,Partly Cloudy,220,2013-06-17 09:00:00
2:13 AM,50.0,48.2,94,30.09,9.0,SSW,6.9,-,N/A,Rain,Light Rain,210,2013-06-17 09:13:00
2:30 AM,50.0,46.4,87,30.07,5.0,WSW,6.9,-,N/A,Rain,Light Rain,240,2013-06-17 09:30:00
3:00 AM,48.2,46.4,93,30.04,9.0,WSW,8.1,-,N/A,Rain,Light Rain,250,2013-06-17 10:00:00
3:33 AM,48.2,46.4,93,30.05,9.0,NNE,2.3,-,N/A,,Scattered Clouds,20,2013-06-17 10:33:00
3:43 AM,48.2,46.4,93,30.04,9.0,West,2.3,-,N/A,Rain,Light Rain,280,2013-06-17 10:43:00
3:59 AM,48.2,46.4,93,30.04,9.0,WSW,4.6,-,N/A,,Partly Cloudy,240,2013-06-17 10:59:00
4:00 AM,48.2,46.4,93,30.03,9.0,WSW,4.6,-,N/A,,Clear,240,2013-06-17 11:00:00
5:00 AM,46,44,90,30.07,9,SSW,5.8,,,,,210,2013-06-17 12:00:00
5:00 AM,46.4,44.6,93,30.07,9.0,SW,4.6,-,N/A,,Clear,220,2013-06-17 12:00:00
5:42 AM,46.4,46.4,100,30.04,9.0,South,4.6,-,N/A,,Mostly Cloudy,190,2013-06-17 12:42:00
5:44 AM,46.4,46.4,100,30.04,9.0,South,4.6,-,N/A,,Overcast,190,2013-06-17 12:44:00
5:50 AM,48.2,46.4,93,30.04,9.0,South,4.6,-,N/A,,Partly Cloudy,190,2013-06-17 12:50:00
6:00 AM,48.2,46.4,93,30.06,9.0,SSW,3.5,-,N/A,,Partly Cloudy,200,2013-06-17 13:00:00
6:21 AM,48.2,46.4,93,30.04,9.0,South,5.8,-,N/A,,Mostly Cloudy,180,2013-06-17 13:21:00
6:29 AM,48.2,48.2,100,30.04,9.0,South,8.1,-,N/A,,Overcast,180,2013-06-17 13:29:00
6:37 AM,48.2,46.4,93,30.04,9.0,SSE,5.8,-,N/A,,Overcast,160,2013-06-17 13:37:00
6:46 AM,50.0,48.2,94,30.03,9.0,South,3.5,-,N/A,,Overcast,170,2013-06-17 13:46:00
6:50 AM,50.0,48.2,94,30.03,9.0,South,4.6,-,N/A,,Overcast,170,2013-06-17 13:50:00
7:00 AM,50.0,48.2,94,30.04,9.0,South,5.8,-,N/A,,Mostly Cloudy,190,2013-06-17 14:00:00
7:09 AM,50.0,48.2,94,30.03,9.0,SSW,6.9,-,N/A,,Overcast,200,2013-06-17 14:09:00
7:18 AM,51.8,48.2,88,30.03,9.0,South,4.6,-,N/A,,Overcast,190,2013-06-17 14:18:00
7:23 AM,51.8,48.2,88,30.03,9.0,South,4.6,-,N/A,,Overcast,170,2013-06-17 14:23:00
8:00 AM,52,48,82,30.04,9,South,5.8,,,,,180,2013-06-17 15:00:00
8:00 AM,51.8,48.2,88,30.04,9.0,South,5.8,-,N/A,,Scattered Clouds,170,2013-06-17 15:00:00
9:00 AM,57.2,50.0,77,30.03,9.0,SSE,5.8,-,N/A,,Mostly Cloudy,150,2013-06-17 16:00:00
10:00 AM,55.4,48.2,77,30.03,9.0,SSE,5.8,-,N/A,,Mostly Cloudy,160,2013-06-17 17:00:00
11:00 AM,62,50,56,30.00,9,SSE,5.8,,,,,150,2013-06-17 18:00:00
11:00 AM,62.6,50.0,63,30.00,9.0,SSE,4.6,-,N/A,,Partly Cloudy,150,2013-06-17 18:00:00
12:00 PM,64.4,46.4,52,29.97,9.0,SSE,9.2,-,N/A,,Partly Cloudy,150,2013-06-17 19:00:00
12:01 PM,64.4,48.2,56,29.97,9.0,SSE,9.2,-,N/A,,Light Drizzle,150,2013-06-17 19:01:00
12:33 PM,66.2,44.6,46,29.96,9.0,South,9.2,-,N/A,,Partly Cloudy,170,2013-06-17 19:33:00
1:00 PM,68.0,48.2,49,29.94,9.0,South,8.1,-,N/A,,Partly Cloudy,170,2013-06-17 20:00:00
1:02 PM,68.0,50.0,52,29.95,9.0,SSW,6.9,-,N/A,,Light Drizzle,210,2013-06-17 20:02:00
1:15 PM,69.8,50.0,49,29.95,9.0,SSE,5.8,-,N/A,,Partly Cloudy,160,2013-06-17 20:15:00
1:55 PM,66.2,48.2,52,29.94,9.0,SW,8.1,-,N/A,,Light Drizzle,230,2013-06-17 20:55:00
1:57 PM,68.0,48.2,49,29.94,9.0,West,6.9,-,N/A,,Partly Cloudy,260,2013-06-17 20:57:00
2:00 PM,67,47,38,29.93,9,WSW,5.8,,,,,250,2013-06-17 21:00:00
2:00 PM,66.2,48.2,52,29.93,9.0,West,3.5,-,N/A,,Partly Cloudy,270,2013-06-17 21:00:00
2:12 PM,66.2,46.4,49,29.94,9.0,SW,5.8,-,N/A,,Light Drizzle,220,2013-06-17 21:12:00
2:18 PM,64.4,48.2,56,29.94,9.0,SW,4.6,-,N/A,,Partly Cloudy,230,2013-06-17 21:18:00
2:29 PM,68.0,50.0,52,29.93,9.0,WSW,2.3,-,N/A,,Light Drizzle,240,2013-06-17 21:29:00
2:39 PM,66.2,48.2,52,29.93,9.0,SSW,2.3,-,N/A,,Partly Cloudy,210,2013-06-17 21:39:00
3:00 PM,66.2,50.0,56,29.91,9.0,SW,3.5,-,N/A,,Partly Cloudy,230,2013-06-17 22:00:00
4:00 PM,69.8,44.6,40,29.88,9.0,SSE,6.9,-,N/A,,Scattered Clouds,160,2013-06-17 23:00:00
5:00 PM,70,46,30,29.87,9,SSW,6.9,,,,,200,2013-06-18 00:00:00
5:00 PM,69.8,46.4,43,29.87,9.0,South,8.1,-,N/A,,Scattered Clouds,190,2013-06-18 00:00:00
5:22 PM,69.8,44.6,40,29.87,9.0,South,9.2,-,N/A,,Light Drizzle,180,2013-06-18 00:22:00
5:26 PM,69.8,44.6,40,29.87,9.0,SW,5.8,-,N/A,,Partly Cloudy,230,2013-06-18 00:26:00
5:34 PM,69.8,42.8,38,29.87,9.0,SW,5.8,-,N/A,,Light Drizzle,230,2013-06-18 00:34:00
5:36 PM,69.8,42.8,38,29.87,9.0,SSW,4.6,-,N/A,,Clear,210,2013-06-18 00:36:00
6:00 PM,68.0,42.8,40,29.86,9.0,SW,5.8,-,N/A,,Clear,230,2013-06-18 01:00:00
7:00 PM,66.2,41.0,40,29.86,9.0,South,8.1,-,N/A,,Clear,190,2013-06-18 02:00:00
7:59 PM,66.2,39.2,37,29.88,9.0,South,11.5,-,N/A,Rain,Light Rain,180,2013-06-18 02:59:00
8:00 PM,65,39,27,29.87,9,South,9.2,,,Rain,Light Rain,190,2013-06-18 03:00:00
8:00 PM,66.2,39.2,37,29.87,9.0,South,11.5,-,N/A,Rain,Light Rain,180,2013-06-18 03:00:00
8:12 PM,64.4,39.2,40,29.88,9.0,SSW,5.8,-,N/A,,Mostly Cloudy,200,2013-06-18 03:12:00
9:00 PM,60.8,39.2,45,29.88,9.0,South,4.6,-,N/A,,Partly Cloudy,180,2013-06-18 04:00:00
10:00 PM,51.8,41.0,67,29.91,9.0,SSW,4.6,-,N/A,,Clear,210,2013-06-18 05:00:00
11:00 PM,48,39,63,29.91,9,SW,2.3,,,,,230,2013-06-18 06:00:00
11:00 PM,48.2,39.2,71,29.91,9.0,WSW,2.3,-,N/A,,Clear,240,2013-06-18 06:00:00